Terminal Aerodrome Forecast
Issued by NWS Springfield, MO

Home | Current Version | Previous Version | Text Only | Print | Product List | Glossary On
Versions: 1 2 3 4 5 6 7 8 9 10 11 12 13 14 15 16 17 18 19 20 21 22 23
000
FTUS43 KSGF 161600 AAA
TAFSGF
TAF AMD
KSGF 161603Z 1616/1712 31013G22KT P6SM OVC015
     FM161800 30012G18KT P6SM OVC025
     FM162100 33010KT P6SM BKN035
     FM170300 34003KT P6SM SCT250=

USA.gov is the U.S. government's official web portal to all federal, state and local government web resources and services.